This is the latest recevied weather packets stored in our database for station/object SA7AHC. If no packets are shown the sender has not sent any weather packets the latest 10 day(s).
| Time | Temp. | Humidity | Pressure | Rain* | Wind** | Luminosity | Snow |
|---|---|---|---|---|---|---|---|
| 1777871914 | 8.33° C | 97% | 1006 hPa | 0 mm | - | 47 W/m² | - |
| 1777871317 | 8.33° C | 97% | 1005.9 hPa | 0 mm | - | 84 W/m² | - |
| 1777870705 | 8.33° C | 97% | 1006 hPa | 0 mm | - | 25 W/m² | - |
| 1777870100 | 8.33° C | 97% | 1006 hPa | 0.25 mm | - | 11 W/m² | - |
| 1777869799 | 8.33° C | 97% | 1006 hPa | 0.25 mm | - | 26 W/m² | - |
| 1777868905 | 8.33° C | 97% | 1005.9 hPa | 0.51 mm | - | 62 W/m² | - |
| 1777868294 | 8.33° C | 97% | 1005.9 hPa | 1.02 mm | - | 33 W/m² | - |
| 1777867699 | 8.33° C | 97% | 1005.9 hPa | 1.27 mm | - | 19 W/m² | - |
| 1777867088 | 8.33° C | 97% | 1006 hPa | 1.27 mm | - | 7 W/m² | - |
| 1777866478 | 8.33° C | 96% | 1006.4 hPa | 1.27 mm | - | 0 W/m² | - |
| 1777865873 | 8.33° C | 97% | 1006.3 hPa | 1.27 mm | - | 0 W/m² | - |
| 1777865260 | 8.33° C | 96% | 1006.4 hPa | 1.02 mm | - | 0 W/m² | - |
| 1777864659 | 8.89° C | 96% | 1006.1 hPa | 0.51 mm | - | 0 W/m² | - |
| 1777864059 | 8.89° C | 96% | 1006.1 hPa | 0.51 mm | - | 0 W/m² | - |
| 1777863456 | 8.89° C | 96% | 1006.1 hPa | 0.76 mm | - | 0 W/m² | - |
| 1777862857 | 8.89° C | 96% | 1006.4 hPa | 0.76 mm | - | 0 W/m² | - |
| 1777862254 | 8.89° C | 96% | 1006.4 hPa | 1.02 mm | - | 0 W/m² | - |
| 1777861639 | 8.89° C | 96% | 1006.4 hPa | 1.52 mm | - | 0 W/m² | - |
| 1777861034 | 8.89° C | 96% | 1006.7 hPa | 1.52 mm | - | 0 W/m² | - |
| 1777860427 | 8.89° C | 96% | 1006.3 hPa | 2.29 mm | - | 0 W/m² | - |
| 1777859826 | 8.89° C | 96% | 1006.3 hPa | 3.3 mm | - | 0 W/m² | - |
| 1777859225 | 8.89° C | 96% | 1006.7 hPa | 3.56 mm | - | 0 W/m² | - |
| 1777858626 | 8.89° C | 96% | 1006.9 hPa | 3.3 mm | - | 0 W/m² | - |
| 1777858027 | 8.89° C | 96% | 1006.9 hPa | 3.05 mm | - | 0 W/m² | - |
| 1777857426 | 8.89° C | 96% | 1007.5 hPa | 3.05 mm | - | 0 W/m² | - |
* Rain latest hour (hover to see other rain measurements)
** Current wind speed in m/s (hover to see current wind gust speed)